Home > Weather > Newport News > Past weeks

Flag for USA Past Weather in Newport News, Virginia, USA — Yesterday and Last 2 Weeks

Now
80 °F

Scattered clouds.


Feels Like: 82 °F
Forecast: 68 / 86 °F
Wind: 8 mph from Southeast

Location: Newport News / Williamsburg International Airport

Current Time: Jun 30, 2016 at 1:49:40 PM

Latest Report: Jun 30, 2016 at 12:54 PM


Visibility: 10 mi

Pressure: 30.05 "Hg

Humidity: 58%

Dew Point: 64 °F

Location of Newport NewsLocation

Past Weather in Newport News — Graph

°F

Newport News Temperature Yesterday

Maximum temperature yesterday: 86 °F (at 3:54 PM)
Minimum temperature yesterday: 67 °F (at 6:02 AM)
Average temperature yesterday: 76 °F

High & Low Weather Summary for the Past Weeks

 TemperatureHumidityPressure
High87 °F (Jun 20, 3:54 PM)100% (Jun 16, 10:04 PM)30.37 "Hg (Jun 16, 10:04 PM)
Low55 °F (Jun 19, 2:54 AM)31% (Jun 20, 4:54 PM)29.65 "Hg (Jun 17, 2:54 AM)
Average75 °F76%30.01 "Hg
* Reported Jun 15 11:54 AM — Jun 30 11:54 AM, Newport News, Weather by CustomWeather, © 2016

Note: Actual official high and low records may vary slightly from our data, if they occured in-between our weather recording intervals... More about our weather records

Advertising

Newport News Weather History for the Previous 24 Hours

Scroll right to see more
 ConditionsComfort  
Time TempWeatherWind HumidityBarometerVisibility
11:54 AM
Thu, Jun 30
81 °FPassing clouds.13 mph54%30.05 "Hg10 mi
10:54 AM80 °FSunny.9 mph62%30.05 "Hg10 mi
9:54 AM79 °FPassing clouds.9 mph65%30.05 "Hg10 mi
8:54 AM78 °FSunny.9 mph69%30.04 "Hg10 mi
7:54 AM75 °FSunny.6 mph76%30.03 "Hg10 mi
6:54 AM70 °FSunny.No wind84%30.02 "Hg10 mi
5:54 AM69 °FPassing clouds.5 mph79%30.01 "Hg10 mi
4:54 AM70 °FPassing clouds.8 mph84%30.00 "Hg10 mi
3:54 AM69 °FPassing clouds.No wind93%30.01 "Hg10 mi
2:54 AM72 °FPassing clouds.No wind81%30.02 "Hg10 mi
1:54 AM70 °FOvercast.No wind93%30.01 "Hg10 mi
12:54 AM70 °FClear.No wind93%30.02 "Hg10 mi
11:54 PM
Wed, Jun 29
71 °FClear.No wind93%30.01 "Hg10 mi
10:54 PM71 °FPassing clouds.No wind90%30.00 "Hg10 mi
9:54 PM72 °FClear.3 mph91%29.97 "Hg10 mi
8:54 PM75 °FSunny.3 mph85%29.95 "Hg10 mi
7:54 PM79 °FSunny.3 mph77%29.94 "Hg10 mi
6:54 PM83 °FPartly sunny.3 mph57%29.93 "Hg10 mi
5:54 PM81 °FBroken clouds.5 mph60%29.92 "Hg10 mi
4:54 PM84 °FPassing clouds.7 mph53%29.93 "Hg10 mi
3:54 PM86 °FScattered clouds.9 mph49%29.92 "Hg10 mi
2:54 PM84 °FBroken clouds.10 mph53%29.93 "Hg10 mi
1:54 PM83 °FBroken clouds.9 mph55%29.93 "Hg10 mi
Weather by CustomWeather, © 2016

See weather overviewHow to use our weather pages